Terminal Aerodrome Forecast
Issued by NWS Wilmington, OH

Current Version | Previous Version | Text Only | Print | Product List | Glossary On
Versions: 1 2 3 4 5 6 7 8 9 10 11 12 13 14 15 16 17 18 19 20 21 22 23 24 25 26 27 28
000
FTUS41 KILN 222300
TAFILN
TAF
KILN 222339Z 2300/2324 30004KT P6SM VCSH BKN040
     FM230100 00000KT P6SM SCT040
     FM230600 00000KT 3SM BR SCT012
     FM230800 00000KT 1SM BR BKN008
      TEMPO 2308/2312 1/4SM FG VV001
     FM231300 00000KT 4SM BR BKN012
     FM231500 09003KT P6SM BKN018
     FM231700 10005KT P6SM BKN035=

USA.gov is the U.S. government's official web portal to all federal, state and local government web resources and services.